This is the latest recevied weather packets stored in our database for station/object K6CED. If no packets are shown the sender has not sent any weather packets the latest 10 day(s).
| Time | Temp. | Humidity | Pressure | Rain* | Wind** | Luminosity | Snow |
|---|---|---|---|---|---|---|---|
| 1787928778 | 26.67° C | 63% | 1015.7 hPa | 0 mm | - | 189 W/m² | - |
| 1787928477 | 26.67° C | 62% | 1015.6 hPa | 0 mm | - | 171 W/m² | - |
| 1787928171 | 26.67° C | 61% | 1015.8 hPa | 0 mm | - | 154 W/m² | - |
| 1787927870 | 26.67° C | 61% | 1015.7 hPa | 0 mm | - | 138 W/m² | - |
| 1787927565 | 26.67° C | 63% | 1015.7 hPa | 0 mm | - | 124 W/m² | - |
| 1787927260 | 25° C | 66% | 1015.5 hPa | 0 mm | - | 109 W/m² | - |
| 1787926956 | 23.89° C | 69% | 1015.4 hPa | 0 mm | - | 93 W/m² | - |
| 1787926656 | 23.33° C | 70% | 1015.2 hPa | 0 mm | - | 48 W/m² | - |
| 1787926354 | 22.78° C | 69% | 1015.5 hPa | 0 mm | - | 44 W/m² | - |
| 1787926049 | 22.78° C | 69% | 1015.5 hPa | 0 mm | - | 40 W/m² | - |
| 1787925749 | 22.78° C | 69% | 1015.6 hPa | 0 mm | - | 39 W/m² | - |
| 1787925448 | 22.22° C | 71% | 1015.3 hPa | 0 mm | - | 32 W/m² | - |
| 1787925142 | 21.67° C | 72% | 1015.2 hPa | 0 mm | - | 28 W/m² | - |
| 1787924841 | 21.67° C | 72% | 1015.1 hPa | 0 mm | - | 24 W/m² | - |
| 1787924536 | 21.67° C | 72% | 1015.2 hPa | 0 mm | - | 20 W/m² | - |
| 1787924232 | 21.67° C | 73% | 1015.1 hPa | 0 mm | - | 15 W/m² | - |
| 1787923927 | 21.67° C | 74% | 1015.1 hPa | 0 mm | - | 11 W/m² | - |
| 1787923622 | 21.67° C | 73% | 1015.1 hPa | 0 mm | - | 7 W/m² | - |
| 1787923316 | 21.67° C | 74% | 1015.1 hPa | 0 mm | - | 4 W/m² | - |
| 1787923010 | 21.67° C | 73% | 1014.8 hPa | 0 mm | - | 2 W/m² | - |
| 1787922705 | 21.67° C | 74% | 1014.7 hPa | 0 mm | - | 1 W/m² | - |
| 1787922404 | 21.67° C | 72% | 1014.9 hPa | 0 mm | - | 0 W/m² | - |
| 1787922103 | 21.67° C | 73% | 1014.7 hPa | 0 mm | - | 0 W/m² | - |
| 1787921796 | 22.22° C | 72% | 1014.6 hPa | 0 mm | - | 0 W/m² | - |
| 1787921495 | 22.22° C | 71% | 1014.6 hPa | 0 mm | - | 0 W/m² | - |
* Rain latest hour (hover to see other rain measurements)
** Current wind speed in m/s (hover to see current wind gust speed)